Location: Errabaliem
(16.8108°N, 80.4255°E)
Time: 11:22:20
(UTC+00:00)

NOSS 2-1 (E) - Pass Details

Date: 05 August 2024
Orbit: 385 x 1749 km, 63.3° (Epoch: 07 May)

Event Time Altitude Azimuth Distance (km) Brightness Sun altitude
Rises 13:25:26 0° 191° (S) 3,554 7.4 -4.6°
Reaches altitude 10° 13:28:29 10° 184° (S) 2,372 6.4 -5.3°
Maximum altitude 13:33:21 38° 117° (ESE) 957 4.1 -6.4°
Drops below altitude 10° 13:36:57 10° 48° (NE) 1,753 5.6 -7.2°
Sets 13:38:55 0° 39° (NE) 2,517 6.5 -7.7°
